SQ6MTB Weather Reports


Display with metric or nautical units.
time (UTC)temp
F
wind
direction
speed
MPH
gust
MPH
rain 1hr
in
rain 24hr
in
rain mn
in
humidity
%
barometer
mb
20260901002513 61 238 2.0 9.0 0.00 0.00 0.00 80 1015.7
20260901002048 61 246 4.0 11.0 0.00 0.00 0.00 80 1015.6
20260901001532 61 290 4.0 11.0 0.00 0.00 0.00 80 1015.5
20260901001047 61 263 5.0 10.0 0.00 0.00 0.00 81 1015.4
20260901000549 60 252 6.0 10.0 0.00 0.00 0.00 81 1015.5
20260901000057 60 229 5.0 9.0 0.00 0.00 0.00 81 1015.4
20260831235508 61 234 4.0 10.0 0.00 0.00 0.00 82 1015.4
20260831235046 61 237 4.0 9.0 0.00 0.00 0.00 82 1015.4
20260831234527 61 238 3.0 8.0 0.00 0.00 0.00 82 1015.3
20260831234030 61 226 2.0 9.0 0.00 0.00 0.00 82 1015.4
20260831233535 61 229 1.0 9.0 0.00 0.00 0.00 82 1015.3
20260831233044 61 204 2.0 7.0 0.00 0.00 0.00 82 1015.3
20260831232528 61 181 0.0 7.0 0.00 0.00 0.00 81 1015.3
20260831232007 61 199 1.0 7.0 0.00 0.00 0.00 80 1015.2
20260831231528 61 242 1.0 8.0 0.00 0.00 0.00 80 1014.9
20260831231022 60 275 1.0 5.0 0.00 0.00 0.00 81 1014.9
20260831230532 60 234 1.0 4.0 0.00 0.00 0.00 81 1014.9
20260831230019 60 232 0.0 0.0 0.00 0.00 0.00 81 1014.8
20260831225523 60 232 0.0 0.0 0.00 0.00 0.00 81 1014.7
20260831225033 60 232 0.0 0.0 0.00 0.00 0.00 81 1014.8
20260831224616 60 232 0.0 0.0 0.00 0.00 0.00 80 1014.7
20260831224050 60 232 0.0 0.0 0.00 0.00 0.00 80 1014.7
20260831223524 60 232 0.0 0.0 0.00 0.00 0.00 79 1014.7
20260831223005 61 232 0.0 0.0 0.00 0.00 0.00 79 1014.7
20260831222514 61 232 0.0 0.0 0.00 0.00 0.00 79 1014.6
20260831222024 61 232 0.0 0.0 0.00 0.00 0.00 78 1014.6
20260831221537 61 232 0.0 0.0 0.00 0.00 0.00 78 1014.4
20260831221039 62 232 0.0 1.0 0.00 0.00 0.00 78 1014.5
20260831220524 62 232 0.0 3.0 0.00 0.00 0.00 77 1014.5
20260831220059 62 261 0.0 4.0 0.00 0.00 0.00 77 1014.5
20260831215555 62 252 2.0 7.0 0.00 0.00 0.00 76 1014.6
20260831215502 62 251 2.0 7.0 0.00 0.00 0.00 76 1014.6
20260831215036 63 252 4.0 8.0 0.00 0.00 0.00 76 1014.6
20260831214519 63 283 2.0 8.0 0.00 0.00 0.00 76 1014.6
20260831214030 63 272 4.0 8.0 0.00 0.00 0.00 75 1014.7
20260831213541 63 279 5.0 12.0 0.00 0.00 0.00 75 1014.7
20260831213045 64 271 7.0 12.0 0.00 0.00 0.00 75 1014.7
20260831212549 64 246 5.0 10.0 0.00 0.00 0.00 74 1014.8
20260831212031 64 290 7.0 10.0 0.00 0.00 0.00 74 1014.7
20260831211513 64 315 5.0 10.0 0.00 0.00 0.00 74 1014.7
20260831211022 64 281 3.0 8.0 0.00 0.00 0.00 73 1014.7
20260831210524 64 274 3.0 10.0 0.00 0.00 0.00 73 1014.3
20260831210034 64 255 3.0 10.0 0.00 0.00 0.00 73 1014.1
20260831205537 64 271 5.0 9.0 0.00 0.00 0.00 73 1014.0
20260831205045 64 234 4.0 8.0 0.00 0.00 0.00 73 1013.9
20260831204553 64 209 3.0 8.0 0.00 0.00 0.00 73 1013.7
20260831204005 64 235 2.0 8.0 0.00 0.00 0.00 72 1013.7
20260831203508 64 236 3.0 9.0 0.00 0.00 0.00 72 1013.7
20260831203023 64 238 3.0 9.0 0.00 0.00 0.00 72 1013.7
20260831202516 65 261 3.0 8.0 0.00 0.00 0.00 72 1013.6
20260831202051 65 237 4.0 9.0 0.00 0.00 0.00 72 1013.6
20260831202002 65 238 4.0 9.0 0.00 0.00 0.00 71 1013.6
20260831201535 65 244 2.0 9.0 0.00 0.00 0.00 71 1013.6
20260831201015 65 205 2.0 6.0 0.00 0.00 0.00 71 1013.5
20260831200548 65 234 2.0 6.0 0.00 0.00 0.00 70 1013.5
20260831200030 66 228 2.0 6.0 0.00 0.00 0.00 70 1013.4
20260831195546 66 240 3.0 8.0 0.00 0.00 0.00 69 1013.4
20260831195049 66 235 2.0 8.0 0.00 0.00 0.00 69 1013.3
20260831194601 66 245 4.0 10.0 0.00 0.00 0.00 69 1013.3
20260831194005 66 225 3.0 15.0 0.00 0.00 0.00 69 1013.4
20260831193507 66 225 8.0 15.0 0.00 0.00 0.00 69 1013.4
20260831193018 66 235 5.0 12.0 0.00 0.00 0.00 70 1013.3
20260831192550 65 242 5.0 12.0 0.00 0.00 0.00 70 1013.3
20260831192033 65 277 1.0 9.0 0.00 0.00 0.00 71 1013.3
20260831191533 65 279 2.0 6.0 0.00 0.00 0.00 71 1013.3
20260831191021 65 227 0.0 4.0 0.00 0.00 0.00 71 1013.2
20260831190531 65 167 1.0 4.0 0.00 0.00 0.00 71 1013.2
20260831190042 66 221 0.0 3.0 0.00 0.00 0.00 71 1013.0
20260831185521 66 204 0.0 3.0 0.00 0.00 0.00 70 1013.0
20260831185002 66 190 0.0 3.0 0.00 0.00 0.00 70 1013.0
20260831184511 66 183 0.0 3.0 0.00 0.00 0.00 70 1013.1
20260831184018 66 182 0.0 3.0 0.00 0.00 0.00 69 1013.0
20260831183527 67 193 0.0 3.0 0.00 0.00 0.00 69 1013.0
20260831183037 67 191 0.0 0.0 0.00 0.00 0.00 68 1012.9
20260831182543 67 191 0.0 0.0 0.00 0.00 0.00 67 1012.9
20260831182025 67 180 0.0 0.0 0.00 0.00 0.00 67 1012.9
20260831181508 68 196 0.0 0.0 0.00 0.00 0.00 67 1012.8
20260831181014 68 196 0.0 0.0 0.00 0.00 0.00 67 1012.7
20260831180526 68 196 0.0 1.0 0.00 0.00 0.00 66 1012.8
20260831180006 69 171 0.0 1.0 0.00 0.00 0.00 66 1012.7
20260831175546 69 178 0.0 3.0 0.00 0.00 0.00 66 1012.8
20260831175054 69 215 0.0 3.0 0.00 0.00 0.00 66 1012.7
20260831174505 70 193 0.0 3.0 0.00 0.00 0.00 65 1012.7
20260831174041 70 227 0.0 2.0 0.00 0.00 0.00 65 1012.7
20260831173524 70 227 0.0 4.0 0.00 0.00 0.00 65 1012.6
20260831173039 71 234 1.0 4.0 0.00 0.00 0.00 64 1012.6
20260831172539 71 239 2.0 5.0 0.00 0.00 0.00 64 1012.6
20260831172021 71 239 2.0 5.0 0.00 0.00 0.00 65 1012.5
20260831171601 71 235 1.0 5.0 0.00 0.00 0.00 65 1012.5
20260831171500 71 235 1.0 5.0 0.00 0.00 0.00 65 1012.5
20260831171010 72 240 2.0 5.0 0.00 0.00 0.00 64 1012.5
20260831170521 72 242 3.0 5.0 0.00 0.00 0.00 64 1012.5
20260831170024 72 227 1.0 6.0 0.00 0.00 0.00 63 1012.5
20260831165535 72 211 2.0 5.0 0.00 0.00 0.00 63 1012.5
20260831165042 72 213 1.0 5.0 0.00 0.00 0.00 63 1012.5
20260831164526 73 198 2.0 8.0 0.00 0.00 0.00 62 1012.5
20260831164032 73 270 5.0 10.0 0.00 0.00 0.00 61 1012.6
20260831163546 73 172 5.0 12.0 0.00 0.00 0.00 61 1012.5
20260831163052 73 274 5.0 12.0 0.00 0.00 0.00 60 1012.5
20260831162557 74 239 4.0 13.0 0.00 0.00 0.00 60 1012.4
20260831162504 74 252 4.0 13.0 0.00 0.00 0.00 60 1012.4
20260831162046 74 250 3.0 13.0 0.00 0.00 0.00 60 1012.4
20260831161549 74 212 3.0 9.0 0.00 0.00 0.00 61 1012.4
20260831161058 75 172 2.0 7.0 0.00 0.00 0.00 60 1012.5
20260831160507 75 296 2.0 12.0 0.00 0.00 0.00 60 1012.4
20260831160024 75 238 2.0 9.0 0.00 0.00 0.00 59 1012.5
20260831155553 75 234 2.0 14.0 0.00 0.00 0.00 59 1012.4
20260831155101 75 291 4.0 15.0 0.00 0.00 0.00 58 1012.4
20260831155001 75 212 4.0 15.0 0.00 0.00 0.00 59 1012.5
20260831154510 75 261 6.0 18.0 0.00 0.00 0.00 58 1012.5
20260831154018 75 275 10.0 18.0 0.00 0.00 0.00 55 1012.5
20260831153526 75 269 8.0 17.0 0.00 0.00 0.00 56 1012.5
20260831153100 75 240 7.0 17.0 0.00 0.00 0.00 57 1012.6
20260831153007 75 229 7.0 17.0 0.00 0.00 0.00 57 1012.6
20260831152546 75 228 5.0 15.0 0.00 0.00 0.00 59 1012.6
20260831152054 75 204 7.0 15.0 0.00 0.00 0.00 60 1012.7
20260831151506 75 242 7.0 16.0 0.00 0.00 0.00 61 1012.6
20260831151015 74 256 4.0 16.0 0.00 0.00 0.00 62 1012.7
20260831150552 74 244 5.0 14.0 0.00 0.00 0.00 63 1012.7
20260831150032 74 242 8.0 16.0 0.00 0.00 0.00 62 1012.7
20260831145544 74 225 6.0 16.0 0.00 0.00 0.00 62 1012.8
20260831145050 75 275 6.0 14.0 0.00 0.00 0.00 63 1012.7
20260831144532 74 253 7.0 14.0 0.00 0.00 0.00 65 1012.7
20260831144015 74 209 6.0 13.0 0.00 0.00 0.00 65 1012.8
20260831143522 74 264 5.0 12.0 0.00 0.00 0.00 64 1012.7
20260831143031 74 229 5.0 13.0 0.00 0.00 0.00 64 1012.7
20260831142538 74 257 9.0 14.0 0.00 0.00 0.00 63 1012.7
20260831142050 74 222 8.0 14.0 0.00 0.00 0.00 64 1012.7
20260831141552 75 267 4.0 14.0 0.00 0.00 0.00 64 1012.8
20260831141033 75 232 7.0 14.0 0.00 0.00 0.00 64 1012.8
20260831140514 74 211 7.0 18.0 0.00 0.00 0.00 65 1012.7
20260831140022 74 279 11.0 18.0 0.00 0.00 0.00 64 1012.8
20260831135529 74 246 8.0 14.0 0.00 0.00 0.00 65 1012.8
20260831135009 74 276 8.0 12.0 0.00 0.00 0.00 66 1012.8
20260831134556 74 286 7.0 16.0 0.00 0.00 0.00 67 1012.8
20260831134057 74 258 6.0 16.0 0.00 0.00 0.00 67 1012.9
20260831133506 73 123 6.0 11.0 0.00 0.00 0.00 69 1012.8
20260831133016 73 209 2.0 16.0 0.00 0.00 0.00 69 1012.9
20260831132526 73 232 8.0 16.0 0.00 0.00 0.00 69 1013.0
20260831132058 73 252 7.0 13.0 0.00 0.00 0.00 69 1013.0
20260831132008 73 296 7.0 13.0 0.00 0.00 0.00 69 1013.0
20260831131545 73 275 5.0 15.0 0.00 0.00 0.00 68 1012.9
20260831131052 73 225 7.0 15.0 0.00 0.00 0.00 68 1012.9
20260831130600 73 238 4.0 10.0 0.00 0.00 0.00 70 1012.9
20260831130502 73 257 3.0 10.0 0.00 0.00 0.00 70 1012.9
20260831130008 73 254 6.0 10.0 0.00 0.00 0.00 71 1012.9
20260831125548 72 238 4.0 13.0 0.00 0.00 0.00 72 1012.9
20260831125056 72 232 9.0 15.0 0.00 0.00 0.00 71 1013.0
20260831124515 72 240 7.0 13.0 0.00 0.00 0.00 71 1013.0
20260831124039 72 236 5.0 12.0 0.00 0.00 0.00 71 1013.0
20260831123520 72 234 6.0 12.0 0.00 0.00 0.00 71 1012.9
20260831123026 72 136 6.0 11.0 0.00 0.00 0.00 71 1012.9
20260831122534 71 207 5.0 11.0 0.00 0.00 0.00 73 1012.8
20260831122047 71 217 4.0 10.0 0.00 0.00 0.00 73 1012.8
20260831121553 71 173 4.0 11.0 0.00 0.00 0.00 72 1012.8
20260831121036 71 201 4.0 11.0 0.00 0.00 0.00 71 1012.8
20260831120543 71 234 2.0 10.0 0.00 0.00 0.00 71 1012.7
20260831120050 72 177 3.0 8.0 0.00 0.00 0.00 71 1012.6
20260831115554 72 169 3.0 7.0 0.00 0.00 0.00 70 1012.7
20260831115036 72 192 2.0 7.0 0.00 0.00 0.00 71 1012.6
20260831114518 72 288 3.0 7.0 0.00 0.00 0.00 71 1012.7
20260831114028 72 226 0.0 9.0 0.00 0.00 0.00 71 1012.8
20260831113532 72 148 3.0 11.0 0.00 0.00 0.00 71 1012.8
20260831113047 71 272 2.0 11.0 0.00 0.00 0.00 72 1012.8
20260831112548 71 191 3.0 11.0 0.00 0.00 0.00 70 1012.9
20260831112029 72 154 4.0 11.0 0.00 0.00 0.00 70 1012.9
20260831111509 71 227 2.0 12.0 0.00 0.00 0.00 70 1013.0
20260831111018 71 247 2.0 12.0 0.00 0.00 0.00 70 1012.9
20260831110527 71 149 3.0 9.0 0.00 0.00 0.00 72 1012.9
20260831110018 70 78 1.0 6.0 0.00 0.00 0.00 74 1012.9
20260831105515 69 173 0.0 2.0 0.00 0.00 0.00 75 1012.9
20260831105022 68 173 0.0 4.0 0.00 0.00 0.00 75 1013.0
20260831104529 68 222 0.0 4.0 0.00 0.00 0.00 77 1013.1
20260831104045 67 262 0.0 8.0 0.00 0.00 0.00 78 1013.1
20260831103546 67 215 1.0 8.0 0.00 0.00 0.00 77 1013.2
20260831103032 67 238 1.0 4.0 0.00 0.00 0.00 77 1013.2
20260831102542 67 217 0.0 4.0 0.00 0.00 0.00 77 1013.3
20260831102049 67 237 0.0 5.0 0.00 0.00 0.00 77 1013.3
20260831101602 67 240 1.0 6.0 0.00 0.00 0.00 77 1013.3
20260831101100 66 244 2.0 8.0 0.00 0.00 0.00 78 1013.3
20260831101009 66 244 2.0 8.0 0.00 0.00 0.00 78 1013.3
20260831100546 66 212 2.0 8.0 0.00 0.00 0.00 78 1013.2
20260831100105 66 238 2.0 11.0 0.00 0.00 0.00 78 1013.2
20260831095504 66 250 3.0 11.0 0.00 0.00 0.00 76 1013.3
20260831095015 66 236 3.0 9.0 0.00 0.00 0.00 75 1013.4
20260831094518 66 242 3.0 9.0 0.00 0.00 0.00 76 1013.3
20260831094100 66 251 2.0 9.0 0.00 0.00 0.00 76 1013.3
20260831093510 66 228 5.0 10.0 0.00 0.00 0.00 76 1013.3
20260831093036 66 213 6.0 10.0 0.00 0.00 0.00 75 1013.3
20260831092551 65 254 5.0 10.0 0.00 0.00 0.00 76 1013.2
20260831092032 65 248 2.0 8.0 0.00 0.00 0.00 76 1013.1
20260831091543 65 278 1.0 8.0 0.00 0.00 0.00 76 1013.2
20260831091047 65 227 3.0 9.0 0.00 0.00 0.00 76 1013.3
20260831090552 65 250 4.0 12.0 0.00 0.00 0.00 75 1013.3
20260831090004 66 233 6.0 12.0 0.00 0.00 0.00 75 1013.4
20260831085510 66 261 5.0 10.0 0.00 0.00 0.00 75 1013.2
20260831085050 66 224 5.0 11.0 0.00 0.00 0.00 74 1013.3
20260831084605 66 215 6.0 11.0 0.00 0.00 0.00 74 1013.3
20260831084502 66 264 6.0 12.0 0.00 0.00 0.00 74 1013.2
20260831084009 66 277 5.0 12.0 0.00 0.00 0.00 74 1013.1
20260831083545 66 261 6.0 14.0 0.00 0.00 0.00 74 1013.0
20260831083028 66 275 8.0 13.0 0.00 0.00 0.00 74 1013.0
20260831082536 66 237 8.0 12.0 0.00 0.00 0.00 74 1013.1
20260831082048 65 265 8.0 11.0 0.00 0.00 0.00 75 1013.1
20260831081559 65 238 6.0 11.0 0.00 0.00 0.00 75 1013.0
20260831081003 65 200 6.0 13.0 0.00 0.00 0.00 75 1013.0
20260831080510 65 227 5.0 13.0 0.00 0.00 0.00 75 1012.8
20260831080017 65 235 7.0 12.0 0.00 0.00 0.00 75 1012.8
20260831075525 64 239 4.0 9.0 0.00 0.00 0.00 76 1012.7
20260831075010 64 254 2.0 9.0 0.00 0.00 0.00 76 1012.4
20260831074517 64 201 4.0 9.0 0.00 0.00 0.00 76 1012.4
20260831074026 65 169 3.0 10.0 0.00 0.00 0.00 75 1012.3
20260831073526 65 205 4.0 10.0 0.00 0.00 0.00 74 1012.2
20260831073009 65 232 2.0 9.0 0.00 0.00 0.00 73 1012.1
20260831072544 65 223 2.0 9.0 0.00 0.00 0.00 72 1011.9
20260831072023 65 196 3.0 10.0 0.00 0.00 0.00 72 1012.1
20260831071540 65 181 1.0 10.0 0.00 0.00 0.00 72 1012.1
20260831071047 65 184 3.0 10.0 0.00 0.00 0.00 71 1012.2
20260831070544 65 188 3.0 8.0 0.00 0.00 0.00 70 1012.2
20260831070028 65 196 4.0 11.0 0.00 0.00 0.00 70 1012.3
20260831065511 65 202 3.0 9.0 0.00 0.00 0.00 70 1012.3
20260831065048 65 162 1.0 8.0 0.00 0.00 0.00 70 1012.3
20260831064604 65 169 2.0 9.0 0.00 0.00 0.00 70 1012.2
20260831064003 65 133 3.0 8.0 0.00 0.00 0.00 70 1012.2
20260831063511 65 242 2.0 8.0 0.00 0.00 0.00 70 1012.3
20260831063022 65 187 0.0 9.0 0.00 0.00 0.00 70 1012.3
20260831062554 65 211 2.0 9.0 0.00 0.00 0.00 71 1012.3
20260831062040 64 215 3.0 9.0 0.00 0.00 0.00 72 1012.4
20260831061542 64 192 2.0 5.0 0.00 0.00 0.00 72 1012.2
20260831061025 63 173 2.0 6.0 0.00 0.00 0.00 75 1012.2
20260831060505 62 193 1.0 6.0 0.00 0.00 0.00 77 1012.2
20260831060013 61 192 1.0 4.0 0.00 0.00 0.00 80 1012.3
20260831055530 60 161 0.0 0.0 0.00 0.00 0.00 82 1012.2
20260831055056 60 119 0.0 0.0 0.00 0.00 0.00 84 1012.2
20260831054540 59 242 0.0 0.0 0.00 0.00 0.00 84 1012.2
20260831054049 59 242 0.0 0.0 0.00 0.00 0.00 85 1012.2
20260831053523 59 242 0.0 0.0 0.00 0.00 0.00 86 1012.3
20260831053025 58 242 0.0 0.0 0.00 0.00 0.00 86 1012.3
20260831052513 58 242 0.0 0.0 0.00 0.00 0.00 87 1012.4
20260831052022 58 242 0.0 0.0 0.00 0.00 0.00 87 1012.5
20260831051534 58 242 0.0 0.0 0.00 0.00 0.00 87 1012.5
20260831051012 57 242 0.0 0.0 0.00 0.00 0.00 88 1012.5
20260831050519 57 242 0.0 0.0 0.00 0.00 0.00 88 1012.3
20260831050027 57 242 0.0 0.0 0.00 0.00 0.00 88 1012.4
20260831045537 56 242 0.0 0.0 0.00 0.00 0.00 88 1012.4
20260831045022 56 242 0.0 0.0 0.00 0.00 0.00 88 1012.4
20260831044529 56 242 0.0 0.0 0.00 0.00 0.00 88 1012.4
20260831044042 56 242 0.0 0.0 0.00 0.00 0.00 88 1012.4
20260831043521 56 242 0.0 0.0 0.00 0.00 0.00 88 1012.5
20260831043003 56 242 0.0 0.0 0.00 0.00 0.00 88 1012.5
20260831042513 56 242 0.0 0.0 0.00 0.00 0.00 88 1012.4
20260831042023 56 242 0.0 0.0 0.00 0.00 0.00 88 1012.4
20260831041559 56 242 0.0 0.0 0.00 0.00 0.00 88 1012.4
20260831041506 56 242 0.0 0.0 0.00 0.00 0.00 88 1012.4
20260831041045 56 242 0.0 0.0 0.00 0.00 0.00 88 1012.4
20260831040553 56 242 0.0 0.0 0.00 0.00 0.00 87 1012.5
20260831040005 56 242 0.0 0.0 0.00 0.00 0.00 87 1012.7
20260831035545 56 242 0.0 0.0 0.00 0.00 0.00 87 1012.7
20260831035029 56 242 0.0 0.0 0.00 0.00 0.00 87 1012.8
20260831034542 56 242 0.0 0.0 0.00 0.00 0.00 87 1012.7
20260831034047 57 242 0.0 0.0 0.00 0.00 0.00 86 1012.7
20260831033531 57 242 0.0 0.0 0.00 0.00 0.00 86 1012.8
20260831033027 57 242 0.0 0.0 0.00 0.00 0.00 86 1012.8
20260831032521 57 242 0.0 0.0 0.00 0.00 0.00 86 1012.9
20260831032031 57 242 0.0 0.0 0.00 0.00 0.00 86 1012.8
20260831031539 57 242 0.0 0.0 0.00 0.00 0.00 86 1013.0
20260831031025 57 242 0.0 0.0 0.00 0.00 0.00 86 1013.1
20260831030531 57 242 0.0 0.0 0.00 0.00 0.00 86 1013.0
20260831030043 58 242 0.0 0.0 0.00 0.00 0.00 86 1013.1
20260831025528 58 242 0.0 0.0 0.00 0.00 0.00 86 1013.1
20260831025009 58 242 0.0 0.0 0.00 0.00 0.00 85 1013.1
20260831024521 58 242 0.0 0.0 0.00 0.00 0.00 85 1013.1
20260831024100 58 242 0.0 0.0 0.00 0.00 0.00 85 1013.2
20260831024008 58 242 0.0 0.0 0.00 0.00 0.00 85 1013.2
20260831023546 58 242 0.0 0.0 0.00 0.00 0.00 85 1013.1
20260831023102 58 242 0.0 0.0 0.00 0.00 0.00 85 1013.2
20260831022508 58 242 0.0 0.0 0.00 0.00 0.00 84 1013.3
20260831022050 58 242 0.0 0.0 0.00 0.00 0.00 84 1013.3
20260831021557 58 242 0.0 0.0 0.00 0.00 0.00 84 1013.4
20260831021009 58 242 0.0 0.0 0.00 0.00 0.00 83 1013.4
20260831020520 58 242 0.0 0.0 0.00 0.00 0.00 83 1013.5
20260831020114 58 242 0.0 0.0 0.00 0.00 0.00 83 1013.5
20260831020004 58 242 0.0 0.0 0.00 0.00 0.00 83 1013.5
20260831015512 59 242 0.0 0.0 0.00 0.00 0.00 83 1013.6
20260831015019 59 242 0.0 0.0 0.00 0.00 0.00 83 1013.5
20260831014527 59 242 0.0 0.0 0.00 0.00 0.00 83 1013.6
20260831014009 59 242 0.0 0.0 0.00 0.00 0.00 82 1013.7
20260831013549 59 242 0.0 0.0 0.00 0.00 0.00 82 1013.7
20260831013100 59 242 0.0 0.0 0.00 0.00 0.00 82 1013.7
20260831013001 59 242 0.0 0.0 0.00 0.00 0.00 82 1013.6
20260831012511 59 242 0.0 0.0 0.00 0.00 0.00 82 1013.5
20260831012051 59 242 0.0 0.0 0.00 0.00 0.00 83 1013.6
20260831011606 59 242 0.0 0.0 0.00 0.00 0.00 83 1013.6
20260831011503 59 242 0.0 0.0 0.00 0.00 0.00 82 1013.6
20260831011009 59 242 0.0 0.0 0.00 0.00 0.00 82 1013.6
20260831010518 60 242 0.0 0.0 0.00 0.00 0.00 82 1013.7
20260831010057 60 242 0.0 0.0 0.00 0.00 0.00 82 1013.7
20260831005509 60 242 0.0 0.0 0.00 0.00 0.00 82 1013.8
20260831005021 60 242 0.0 0.0 0.00 0.00 0.00 82 1013.8
20260831004537 60 242 0.0 0.0 0.00 0.00 0.00 82 1013.9
20260831004049 60 242 0.0 0.0 0.00 0.00 0.00 81 1013.8
20260831003556 60 242 0.0 0.0 0.00 0.00 0.00 81 1013.8
20260831003008 61 242 0.0 0.0 0.00 0.00 0.00 81 1013.6